Weather History for 71936 - April, 2013

Change the Weather History Date:

Wednesday, April 10, 2013

  Actual Average Record
Temperature  
Mean Temperature 38 °F -  
Max Temperature 47 °F 37 °F - ()
Min Temperature 28 °F 17 °F - ()
Degree Days  
Heating Degree Days 28    
Moisture  
Dew Point 26 °F    
Average Humidity 72    
Maximum Humidity 100    
Minimum Humidity 32    
Precipitation  
Precipitation 0.24 in 0.02 in - ()
Sea Level Pressure  
Sea Level Pressure 29.54 in    
Wind  
Wind Speed 18 mph ()    
Max Wind Speed 30 mph    
Max Gust Speed 38 mph    
Visibility 11.4 miles    
Events Snow    
T = Trace of Precipitation, MM = Missing Value Source: Averaged Metar Reports

Daily Weather History Graph

Daily Weather History Graph

Search for Another Location

Airport or City:

Trip Planner

Search our weather history database for the weather conditions in past years. The results will help you decide how hot, cold, wet, or windy it might be!

Date:

Astronomy

Apr. 10, 2013 Rise Set
Actual Time 6:27 AM MDT 8:51 PM MDT
Civil Twilight 5:38 AM MDT 9:41 PM MDT
Nautical Twilight 4:32 AM MDT 10:48 PM MDT
Astronomical Twilight 2:54 AM MDT 12:32 AM MDT
Moon 6:16 AM MDT (4/10) 9:53 PM MDT (4/10)
Length of Visible Light 16h 02m
Length of Day
14h 23m
New Moon, 0% of the Moon is Illuminated
Apr 10
New Moon
Apr 18
First Quarter
Apr 25
Full
May 2
Last Quarter
May 9
New

Hourly Weather History & Observations

Time (MDT) Temp. Windchill Dew Point Humidity Pressure Visibility Wind Dir Wind Speed Gust Speed Precip Events Conditions
12:00 AM 31 °F - 22 °F 59% 29.64 in 15 mi SSW 18.4 mph - -   Mostly Cloudy
12:00 AM 30.2 °F 16.8 °F 23.0 °F 75% 29.63 in 15.0 mi South 23.0 mph 29.9 mph N/A   Mostly Cloudy
12:37 AM 30.2 °F 16.8 °F 23.0 °F 75% 29.62 in 5.0 mi South 23.0 mph 31.1 mph N/A Snow Light Snow
12:41 AM 30.2 °F 16.8 °F 24.8 °F 80% 29.62 in 1.2 mi South 23.0 mph 29.9 mph N/A Snow Light Snow
1:00 AM 28.4 °F 15.1 °F 28.4 °F 100% 29.61 in 1.2 mi South 20.7 mph 27.6 mph N/A Snow Light Snow
2:00 AM 30.2 °F 15.2 °F 30.2 °F 100% 29.57 in 1.2 mi SSE 29.9 mph 38.0 mph N/A Snow Light Snow
3:00 AM 30.2 °F 15.2 °F 30.2 °F 100% 29.54 in 1.2 mi SSE 29.9 mph 38.0 mph N/A Snow Light Snow
3:54 AM 30.2 °F 15.9 °F 30.2 °F 100% 29.52 in 2.5 mi South 26.5 mph 38.0 mph N/A Snow Light Snow
4:00 AM 30.2 °F 16.5 °F 30.2 °F 100% 29.51 in 2.5 mi South 24.2 mph 36.8 mph N/A Snow Light Snow
4:47 AM 30.2 °F 15.9 °F 30.2 °F 100% 29.49 in 1.0 mi SSE 26.5 mph 34.5 mph N/A Snow Light Snow
5:00 AM 30.2 °F 15.9 °F 30.2 °F 100% 29.49 in 1.2 mi SSE 26.5 mph 34.5 mph N/A Snow Light Snow
5:25 AM 30.2 °F 15.9 °F 30.2 °F 100% 29.49 in 15.0 mi South 26.5 mph 34.5 mph N/A Snow Light Snow
6:00 AM 31 °F - 29 °F 89% 29.48 in 15 mi SSE 25.3 mph - - Snow Light Snow
6:00 AM 30.2 °F 16.2 °F 28.4 °F 93% 29.48 in 15.0 mi SSE 25.3 mph 33.4 mph N/A Snow Light Snow
7:00 AM 30.2 °F 16.8 °F 28.4 °F 93% 29.46 in 15.0 mi SSE 23.0 mph 32.2 mph N/A Snow Light Snow
8:00 AM 30.2 °F 16.5 °F 26.6 °F 86% 29.46 in 15.0 mi South 24.2 mph 32.2 mph N/A Snow Low Drifting Snow
9:00 AM 30.2 °F 17.1 °F 26.6 °F 86% 29.47 in 15.0 mi South 21.9 mph 27.6 mph N/A Snow Low Drifting Snow
10:00 AM 30.2 °F 18.5 °F 26.6 °F 86% 29.47 in 15.0 mi South 17.3 mph 24.2 mph N/A   Partly Cloudy
11:00 AM 33.8 °F 24.8 °F 28.4 °F 81% 29.48 in 15.0 mi South 12.7 mph - N/A   Partly Cloudy
12:00 PM 40 °F - 29 °F 55% 29.48 in 15 mi SSW 10.4 mph - -   Partly Cloudy
12:00 PM 41.0 °F 34.3 °F 28.4 °F 61% 29.48 in 15.0 mi SSW 11.5 mph - N/A   Partly Cloudy
1:00 PM 44.6 °F 38.1 °F 26.6 °F 49% 29.49 in 15.0 mi SSW 13.8 mph 19.6 mph N/A   Partly Cloudy
2:00 PM 46.4 °F 40.1 °F 23.0 °F 40% 29.50 in 15.0 mi SSW 15.0 mph 20.7 mph N/A   Partly Cloudy
3:00 PM 46.4 °F 40.4 °F 21.2 °F 37% 29.52 in 15.0 mi SSW 13.8 mph 19.6 mph N/A   Partly Cloudy
4:00 PM 48.2 °F - 19.4 °F 32% 29.52 in 15.0 mi SSW 8.1 mph - N/A   Partly Cloudy
5:00 PM 39.2 °F 32.5 °F 28.4 °F 65% 29.54 in 15.0 mi South 10.4 mph - N/A   Partly Cloudy
6:00 PM 41 °F - 28 °F 47% 29.56 in 15 mi South 8.1 mph - -   Scattered Clouds
6:00 PM 41.0 °F 35.8 °F 26.6 °F 57% 29.56 in 15.0 mi South 8.1 mph - N/A   Partly Cloudy
7:00 PM 41.0 °F - 26.6 °F 57% 29.58 in 15.0 mi SSW 2.3 mph - N/A   Scattered Clouds
8:00 PM 42.8 °F 38.6 °F 17.6 °F 36% 29.61 in 15.0 mi WNW 6.9 mph - N/A   Scattered Clouds
9:00 PM 39.2 °F 33.0 °F 15.8 °F 39% 29.65 in 15.0 mi NW 9.2 mph - N/A   Mostly Cloudy
10:00 PM 39.2 °F 32.0 °F 15.8 °F 39% 29.69 in 15.0 mi NW 11.5 mph - N/A   Mostly Cloudy
11:00 PM 35.6 °F 27.5 °F 19.4 °F 52% 29.72 in 15.0 mi NW 11.5 mph - N/A   Scattered Clouds